This is the latest recevied weather packets stored in our database for station/object AD8IZ-13. If no packets are shown the sender has not sent any weather packets the latest 10 day(s).
| Time | Temp. | Humidity | Pressure | Rain* | Wind** | Luminosity | Snow |
|---|---|---|---|---|---|---|---|
| 1777998318 | 22.22° C | 62% | 1008.3 hPa | 0 mm | - | 505 W/m² | - |
| 1777997719 | 22.22° C | 63% | 1008.5 hPa | 0 mm | - | 841 W/m² | - |
| 1777997118 | 21.67° C | 64% | 1008.6 hPa | 0 mm | - | 725 W/m² | - |
| 1777996520 | 21.67° C | 65% | 1008.6 hPa | 0 mm | - | 757 W/m² | - |
| 1777995919 | 21.11° C | 66% | 1008.5 hPa | 0 mm | - | 752 W/m² | - |
| 1777995319 | 20.56° C | 68% | 1008.5 hPa | 0 mm | - | 742 W/m² | - |
| 1777994721 | 20° C | 70% | 1008.5 hPa | 0 mm | - | 679 W/m² | - |
| 1777994119 | 19.44° C | 71% | 1008.4 hPa | 0 mm | - | 735 W/m² | - |
| 1777993520 | 18.89° C | 73% | 1008.4 hPa | 0 mm | - | 439 W/m² | - |
| 1777992920 | 18.89° C | 72% | 1008.2 hPa | 0 mm | - | 270 W/m² | - |
| 1777992320 | 18.33° C | 74% | 1008.3 hPa | 0 mm | - | 555 W/m² | - |
| 1777991720 | 17.78° C | 75% | 1008.3 hPa | 0 mm | - | 422 W/m² | - |
| 1777991120 | 17.78° C | 75% | 1008.2 hPa | 0 mm | - | 211 W/m² | - |
| 1777990517 | 17.78° C | 75% | 1008.1 hPa | 0 mm | - | 257 W/m² | - |
| 1777989920 | 17.78° C | 75% | 1008.1 hPa | 0 mm | - | 271 W/m² | - |
| 1777989321 | 17.78° C | 76% | 1008.2 hPa | 0 mm | - | 255 W/m² | - |
| 1777988721 | 17.78° C | 78% | 1008.2 hPa | 0 mm | - | 258 W/m² | - |
| 1777988118 | 17.22° C | 80% | 1008.2 hPa | 0 mm | - | 221 W/m² | - |
| 1777987518 | 16.67° C | 81% | 1008.2 hPa | 0 mm | - | 212 W/m² | - |
| 1777986918 | 16.11° C | 82% | 1008.2 hPa | 0 mm | - | 187 W/m² | - |
| 1777986321 | 16.11° C | 83% | 1008.3 hPa | 0.25 mm | - | 152 W/m² | - |
| 1777985718 | 16.11° C | 83% | 1008.3 hPa | 0.25 mm | - | 82 W/m² | - |
| 1777985119 | 15.56° C | 82% | 1008.3 hPa | 0.25 mm | - | 62 W/m² | - |
| 1777984520 | 15.56° C | 83% | 1008.1 hPa | 0.25 mm | - | 72 W/m² | - |
| 1777983920 | 15.56° C | 83% | 1007.6 hPa | 0.25 mm | - | 46 W/m² | - |
* Rain latest hour (hover to see other rain measurements)
** Current wind speed in m/s (hover to see current wind gust speed)